Starlink 11697

operational
NORAD ID: 63553 Int'l Des: 2025-075 Owner: SPXS Country: US Constellation: starlink
LEOCIRCULAR

Über Starlink 11697

Beschreibung wird geladen...

Live-Position

3D-Globus wird geladen...

Nächste Überflüge

Höhenverlauf

Altitude vs Time

uPlot chart will show altitude changes over time

Zweizeiliger Elementsatz

1 63553U 25075F 25258.02652704 .00169033 00000-0 12899-2 0 9992
2 63553 43.0001 132.4375 0003354 254.3209 105.7289 15.70915411 25628
Epoch: 15. Sept. 2025 • Age: 12 hours

Aktueller Status

Höhe 364.1 km
Geschwindigkeit 7.69 km/s
Subsatellitenpunkt -34.66°S, 101.89°W
Startdatum 13. Apr. 2025
Alter 0.4 years
Typ internet

Technische Details

Klassifizierung Payload
Masse 960.00 kg
Trockenmasse 910.00 kg
Gesamtmasse 960.00 kg
Länge 0.30 m
Durchmesser 4.10 m
Spannweite 29.00 m
Form Box + pan
Hersteller SPXS
Bus-Typ Starlink V2MD
Phasenstatus In Orbit
Besitzer/Staat SPXS/US

Große Konstellationen

Loading constellations...